This demonstration page uses our WeatherBlox Daily Observations layout. Learn more.

Left ArrowRight Arrow

Hourly Observations for March 2, 2015

Temp ( °F °C ) Dew Point ( °F °C ) Humidity (%) Winds ( mph kmh ) Pressure ( in mb ) Visibility ( mi km ) Precip ( " mm )
12:15 am 00:15 Cloudy 23 -5 14 -10 68 68 WNW 13 20 30.45 1031 10 16 N/A
12:35 am 00:35 Mostly Cloudy 23 -5 14 -10 68 68 WNW 10 17 30.42 1030 10 16 N/A
12:56 am 00:56 Partly Cloudy 23 -5 12 -11 63 63 WNW 10 17 30.45 1031 10 16 N/A
1:15 am 01:15 Clear 21 -6 12 -11 68 68 WNW 10 17 30.45 1031 10 16 N/A
1:35 am 01:35 Clear 21 -6 12 -11 68 68 WNW 8 13 30.45 1031 10 16 N/A
1:56 am 01:56 Clear 21 -6 12 -11 68 68 W 9 15 30.45 1031 10 16 N/A
2:15 am 02:15 Clear 21 -6 12 -11 68 68 WNW 9 15 30.45 1031 10 16 N/A
2:35 am 02:35 Clear 21 -6 12 -11 68 68 WNW 10 17 30.45 1031 10 16 N/A
2:56 am 02:56 Partly Cloudy 21 -6 12 -11 68 68 WNW 9 15 30.48 1032 10 16 N/A
3:15 am 03:15 Partly Cloudy 21 -6 12 -11 68 68 WNW 13 20 30.48 1032 10 16 N/A
3:36 am 03:36 Clear 21 -6 10 -12 63 63 WNW 14 22 30.48 1032 10 16 N/A
3:56 am 03:56 Clear 21 -6 9 -13 58 58 NW 13 20 30.48 1032 10 16 N/A
4:15 am 04:15 Clear 21 -6 9 -13 58 58 NW 13 20 30.48 1032 10 16 N/A
4:36 am 04:36 Clear 19 -7 7 -14 58 58 NW 12 19 30.48 1032 10 16 N/A
4:56 am 04:56 Clear 19 -7 7 -14 58 58 NNW 15 24 30.50 1033 10 16 N/A
5:15 am 05:15 Clear 19 -7 5 -15 53 53 NNW 9 15 30.50 1033 10 16 N/A
5:36 am 05:36 Clear 19 -7 5 -15 53 53 NNW 9 15 30.50 1033 10 16 N/A
5:56 am 05:56 Clear 18 -8 5 -15 58 58 NNW 8 13 30.50 1033 10 16 N/A
6:15 am 06:15 Clear 18 -8 5 -15 58 58 NNW 7 11 30.53 1034 10 16 N/A
6:36 am 06:36 Clear 16 -9 3 -16 57 57 NW 6 9 30.53 1034 10 16 N/A
6:56 am 06:56 Clear 16 -9 3 -16 57 57 NW 5 7 30.53 1034 10 16 N/A
7:15 am 07:15 Clear 12 -11 1 -17 62 62 NW 3 6 30.56 1035 10 16 N/A
7:36 am 07:36 Sunny 10 -12 1 -17 67 67 N N/A 30.56 1035 10 16 N/A
7:56 am 07:56 Sunny 12 -11 3 -16 67 67 N N/A 30.59 1036 10 16 N/A
8:15 am 08:15 Sunny 12 -11 1 -17 62 62 N N/A 30.59 1036 10 16 N/A
8:36 am 08:36 Sunny 14 -10 5 -15 67 67 N N/A 30.59 1036 10 16 N/A
8:56 am 08:56 Sunny 16 -9 3 -16 57 57 N N/A 30.59 1036 10 16 N/A
9:15 am 09:15 Sunny 18 -8 5 -15 58 58 N N/A 30.59 1036 10 16 N/A
9:36 am 09:36 Sunny 19 -7 5 -15 53 53 N N/A 30.59 1036 10 16 N/A
9:56 am 09:56 Sunny 19 -7 5 -15 53 53 N N/A 30.59 1036 10 16 N/A
10:15 am 10:15 Sunny 21 -6 3 -16 45 45 N N/A 30.59 1036 10 16 N/A
10:36 am 10:36 Sunny 23 -5 5 -15 46 46 N N/A 30.59 1036 10 16 N/A
10:56 am 10:56 Sunny 25 -4 5 -15 42 42 N N/A 30.59 1036 10 16 N/A
11:15 am 11:15 Sunny 25 -4 5 -15 42 42 N N/A 30.59 1036 10 16 N/A
11:36 am 11:36 Sunny 25 -4 5 -15 42 42 N N/A 30.59 1036 10 16 N/A
11:56 am 11:56 Sunny 27 -3 5 -15 39 39 N N/A 30.59 1036 10 16 N/A
12:15 pm 12:15 Sunny 27 -3 5 -15 39 39 N N/A 30.59 1036 10 16 N/A
12:36 pm 12:36 Sunny 28 -2 5 -15 37 37 N N/A 30.59 1036 10 16 N/A
12:55 pm 12:55 Sunny 28 -2 5 -15 37 37 N N/A 30.59 1036 10 16 N/A
1:15 pm 13:15 Sunny 30 -1 5 -15 34 34 N N/A 30.59 1036 10 16 N/A
1:36 pm 13:36 Sunny 30 -1 5 -15 34 34 N N/A 30.53 1034 10 16 N/A
1:55 pm 13:55 Sunny 30 -1 5 -15 34 34 E 3 6 30.53 1034 10 16 N/A
2:15 pm 14:15 Sunny 30 -1 3 -16 31 31 E 5 7 30.50 1033 10 16 N/A
2:36 pm 14:36 Sunny 30 -1 5 -15 34 34 E 6 9 30.50 1033 10 16 N/A
2:55 pm 14:55 Sunny 30 -1 5 -15 34 34 E 5 7 30.48 1032 10 16 N/A
3:15 pm 15:15 Sunny 30 -1 3 -16 31 31 E 3 6 30.50 1033 10 16 N/A
3:36 pm 15:36 Sunny 28 -2 5 -15 37 37 E 6 9 30.50 1033 10 16 N/A
3:55 pm 15:55 Sunny 28 -2 5 -15 37 37 ESE 6 9 30.50 1033 10 16 N/A
4:15 pm 16:15 Sunny 28 -2 5 -15 37 37 ESE 6 9 30.50 1033 10 16 N/A
4:36 pm 16:36 Sunny 27 -3 3 -16 36 36 ESE 6 9 30.50 1033 10 16 N/A
4:55 pm 16:55 Sunny 27 -3 5 -15 39 39 ESE 5 7 30.50 1033 10 16 N/A
5:15 pm 17:15 Sunny 25 -4 5 -15 42 42 ESE 5 7 30.50 1033 10 16 N/A
5:36 pm 17:36 Sunny 25 -4 3 -16 39 39 N N/A 30.50 1033 10 16 N/A
5:55 pm 17:55 Sunny 25 -4 5 -15 42 42 N N/A 30.50 1033 10 16 N/A
6:15 pm 18:15 Sunny 23 -5 5 -15 46 46 ESE 3 6 30.50 1033 10 16 N/A
6:36 pm 18:36 Sunny 21 -6 3 -16 45 45 ESE 3 6 30.48 1032 10 16 N/A
6:55 pm 18:55 Clear 23 -5 7 -14 50 50 SE 5 7 30.48 1032 10 16 N/A
7:16 pm 19:16 Clear 25 -4 9 -13 50 50 SSE 6 9 30.48 1032 10 16 N/A
7:35 pm 19:35 Clear 25 -4 9 -13 50 50 N N/A 30.48 1032 10 16 N/A
7:55 pm 19:55 Clear 25 -4 7 -14 46 46 N N/A 30.48 1032 10 16 N/A
8:16 pm 20:16 Clear 25 -4 7 -14 46 46 SE 3 6 N/A 10 16 N/A
8:35 pm 20:35 Clear 23 -5 9 -13 54 54 SE 5 7 30.45 1031 10 16 N/A
8:56 pm 20:56 Clear 23 -5 9 -13 54 54 N N/A 30.45 1031 10 16 N/A
9:16 pm 21:16 Clear 25 -4 10 -12 54 54 E 7 11 30.42 1030 10 16 N/A
9:35 pm 21:35 Clear 25 -4 9 -13 50 50 E 5 7 30.42 1030 10 16 N/A
9:56 pm 21:56 Clear 25 -4 9 -13 50 50 E 6 9 30.42 1030 10 16 N/A
10:16 pm 22:16 Clear 23 -5 9 -13 54 54 ESE 5 7 30.42 1030 10 16 N/A
10:35 pm 22:35 Clear 23 -5 9 -13 54 54 E 5 7 30.39 1029 10 16 N/A
10:56 pm 22:56 Clear 21 -6 9 -13 58 58 ESE 6 9 30.39 1029 10 16 N/A
11:16 pm 23:16 Clear 23 -5 9 -13 54 54 ESE 6 9 30.39 1029 10 16 N/A
11:35 pm 23:35 Clear 23 -5 7 -14 50 50 ESE 8 13 30.36 1028 10 16 N/A
11:56 pm 23:56 Clear 23 -5 9 -13 54 54 ESE 7 11 30.33 1027 10 16 N/A

Powered by AerisWeather